Home   Weather   Braunau am Inn   Past weeks

Flag for Austria Past Weather in Braunau am Inn, Upper Austria, Austria — Yesterday and Last 2 Weeks

Now
69 °F

Scattered clouds.


Feels Like: 69 °F
Forecast: 45 / 69 °F
Wind: N/A

Location: Salzburg-Flughafen

Current Time: Sep 25, 2016 at 2:28:15 PM

Latest Report: Sep 25, 2016 at 2:00 PM


Visibility: 22 mi

Pressure: 30.10 "Hg

Humidity: 54%

Dew Point: 51 °F

Location of Braunau am InnLocation

Past Weather in Braunau am Inn — Graph

°F

Braunau am Inn Temperature Yesterday

Maximum temperature yesterday: 70 °F (at 4:00 PM)
Minimum temperature yesterday: 46 °F (at 7:00 AM)
Average temperature yesterday: 58 °F

High & Low Weather Summary for the Past Weeks

 TemperatureHumidityPressure
High84 °F (Sep 15, 3:00 PM)100% (Sep 19, 7:00 AM)30.36 "Hg (Sep 19, 7:00 AM)
Low40 °F (Sep 22, 7:00 AM)34% (Sep 15, 3:00 PM)29.77 "Hg (Sep 15, 3:00 PM)
Average61 °F81%30.03 "Hg
* Reported Sep 10 1:00 PM — Sep 25 1:00 PM, Braunau am Inn, Weather by CustomWeather, © 2016

Note: Actual official high and low records may vary slightly from our data, if they occured in-between our weather recording intervals... More about our weather records

Advertising

Braunau am Inn Weather History for the Previous 24 Hours

Scroll right to see more
 ConditionsComfort  
Time TempWeatherWind HumidityBarometerVisibility
1:00 PM
Sun, Sep 25
65 °FScattered clouds.N/A66%30.12 "Hg17 mi
12:00 PM64 °FScattered clouds.N/A60%30.14 "Hg18 mi
11:00 AM62 °FPassing clouds.N/A61%30.16 "Hg19 mi
10:00 AM58 °FPassing clouds.5 mph71%30.18 "Hg19 mi
9:00 AM54 °FPassing clouds.5 mph78%30.20 "Hg11 mi
8:00 AM48 °FPassing clouds.3 mph87%30.22 "Hg14 mi
7:00 AM48 °FScattered clouds.5 mph86%30.21 "Hg31 mi
6:00 AM47 °FPassing clouds.5 mph91%30.21 "Hg28 mi
5:00 AM48 °FPassing clouds.N/A90%30.22 "Hg25 mi
4:00 AM49 °FPassing clouds.3 mph90%30.21 "Hg28 mi
3:00 AM48 °FPassing clouds.N/A96%30.22 "Hg22 mi
2:00 AM48 °FPassing clouds.N/A97%30.22 "Hg12 mi
1:00 AM48 °FPassing clouds.N/A98%30.24 "Hg6 mi
12:00 AM49 °FPassing clouds.N/A95%30.25 "Hg10 mi
11:00 PM
Sat, Sep 24
51 °FPassing clouds.N/A94%30.24 "Hg10 mi
10:00 PM53 °FPassing clouds.N/A92%30.24 "Hg12 mi
9:00 PM55 °FPassing clouds.N/A89%30.24 "Hg12 mi
8:00 PM58 °FPassing clouds.N/A84%30.23 "Hg19 mi
7:00 PM67 °FPassing clouds.N/A55%30.21 "Hg25 mi
6:00 PM68 °FScattered clouds.N/A54%30.21 "Hg18 mi
5:00 PM70 °FScattered clouds.N/A52%30.21 "Hg19 mi
4:00 PM70 °FScattered clouds.N/A51%30.21 "Hg17 mi
3:00 PM70 °FScattered clouds.3 mph49%30.24 "Hg18 mi
2:00 PM69 °FScattered clouds.N/A52%30.25 "Hg14 mi
Weather by CustomWeather, © 2016

See weather overviewHow to use our weather pages